[[{"header":{"parameterUnit":"m.s-1","parameterCategory":1,"la1":30.2991,"la2":30.254,"lo1":-89.0895,"lo2":-89.0444,"dy":0.0017,"dx":0.0017,"nx":28,"ny":28,"refTime":"2024-10-17T03:00:00:Z","depth":0,"parameterNumber":2,"parameterNumberName":"U-component_of_WINDS"},"data":[0,0,0,0,0,0,0,0,0,0,0,0,0,0,0,0,0,0,0,0,0,0,0,0,0,0,0,0,0,0,0,0,0,0,0,0,0,0,0,0,0,0,0,0,0,0,0,0,0,0,0,0,0,0,0,0,0,0,-4.8146,-4.8146,0,-4.817,-4.8171,-4.8171,-4.7992,-4.7987,-4.7982,-4.7977,-4.8004,-4.8009,-4.8015,0,0,0,0,0,0,0,0,0,0,0,0,0,-4.7944,-4.7949,-4.8146,-4.8146,-4.8146,-4.817,-4.8171,-4.8171,-4.7993,-4.7987,-4.7981,-4.7975,-4.8002,-4.8009,-4.8015,0,0,0,0,0,0,0,0,0,0,0,0,0,-4.8007,-4.795,-4.8146,-4.806,-4.8053,-4.817,-4.8171,-4.8171,-4.7994,-4.7987,-4.7979,-4.7972,-4.8,-4.8008,-4.8016,-4.8217,0,0,-4.8041,-4.8044,0,0,0,0,0,0,0,0,-4.8003,-4.8014,-4.8073,-4.8066,-4.8058,-4.807,-4.8109,-4.8187,-4.7996,-4.8017,-4.7977,-4.7968,-4.8032,-4.8037,-4.8058,-4.8218,-4.8219,-4.8041,-4.8046,-4.805,-4.8052,0,0,0,0,0,0,0,-4.7999,-4.8012,-4.8155,-4.8074,-4.8065,-4.8021,-4.8021,-4.8123,-4.8067,-4.8014,-4.8001,-4.8007,-4.8027,-4.8051,-4.8058,-4.822,-4.8041,-4.8048,-4.8053,-4.8057,-4.8542,-4.855,0,0,0,0,0,0,-4.8006,-4.801,-4.8155,-4.8156,-4.8012,-4.8031,-4.8031,-4.8074,-4.8065,-4.8056,-4.8013,-4.7998,-4.8041,-4.8049,-4.8058,-4.8289,-4.805,-4.8057,-4.8062,-4.8534,-4.8544,-4.8552,0,0,0,0,0,0,-4.8003,-4.8021,-4.8154,-4.808,-4.8093,-4.8042,-4.8092,-4.8079,-4.8102,-4.8064,-4.8053,-4.8048,-4.8035,-4.8047,-4.8178,-4.8288,-4.8061,-4.8068,-4.8525,-4.8537,-4.8548,-4.8756,0,0,0,0,0,0,-4.7998,-4.8021,-4.8097,-4.8083,-4.8098,-4.8274,-4.8099,-4.8085,-4.8117,-4.8098,-4.8094,-4.8086,-4.803,-4.8167,-4.8186,-4.8295,-4.8075,-4.8514,-4.853,-4.8544,-4.8739,-4.8774,-4.8804,0,0,0,0,0,-4.7991,-4.8155,-4.8101,-4.812,-4.8192,-4.828,-4.8289,-4.8221,-4.8127,-4.8202,-4.8177,-4.8086,-4.8274,-4.8182,-4.8202,-4.8315,-4.8507,-4.8526,-4.8543,-4.8725,-4.8767,-4.8803,0,0,0,0,0,0,-4.8185,-4.8152,-4.8092,-4.8256,-4.8273,-4.825,-4.8343,-4.8269,-4.8312,-4.8292,-4.8207,-4.8208,-4.8352,-4.8347,-4.8245,-4.8507,-4.8374,-4.8397,-4.8505,-4.8545,-4.8577,-4.8573,-4.8081,0,0,0,0,0,-4.8247,-4.8321,-4.8289,-4.8437,-4.8448,-4.8395,-4.8431,-4.8377,-4.8391,-4.8397,-4.8381,-4.8398,-4.846,-4.8503,-4.8558,-4.8739,-4.8734,-4.8827,-4.8859,-4.8885,-4.8905,-4.8997,-4.9037,-4.8612,-4.8612,-4.8611,0,0,-4.8375,-4.8366,-4.8419,-4.8476,-4.8482,-4.856,-4.8402,-4.8492,-4.8549,-4.841,-4.8532,-4.8522,-4.8535,-4.8691,-4.8759,-4.8691,-4.9022,-4.8908,-4.893,-4.8935,-4.902,-4.906,-4.9096,-4.8624,-4.8622,-4.862,0,0,-4.8648,-4.8651,-4.8772,-4.8781,-4.8792,-4.8755,-4.8785,-4.8774,-4.8761,-4.8882,-4.8779,-4.8846,-4.8956,-4.8968,-4.8989,-4.9266,-4.9183,-4.9287,-4.9454,-4.9545,-4.9578,-4.9607,-4.9703,-4.9739,-4.9308,-4.9308,-4.9309,0,-4.8806,-4.892,-4.8845,-4.8941,-4.8968,-4.8846,-4.8968,-4.8981,-4.901,-4.9031,-4.8955,-4.9088,-4.9089,-4.9244,-4.9312,-4.9334,-4.9364,-4.9285,-4.958,-4.9608,-4.9634,-4.9724,-4.9761,-4.932,-4.9319,-4.9318,-4.9317,0,-4.9112,-4.9193,-4.929,-4.9319,-4.9358,-4.9468,-4.9408,-4.9457,-4.94,-4.9371,-4.9495,-4.9491,-4.9542,-4.9576,-4.9522,-4.9724,-4.9681,-4.9594,-4.9457,-4.9688,-4.9771,-4.9806,-4.9338,-4.9334,-4.933,-4.9327,0,0,-4.9506,-4.9491,-4.9528,-4.9539,-4.9542,-4.9602,-4.9706,-4.9755,-4.9796,-4.9822,-4.9904,-5.0,-4.9918,-4.9942,-4.9889,-4.997,-5.0185,-4.9872,-4.9871,-4.9927,-5.0404,-5.0467,-5.0508,-5.0132,-5.0138,-5.0144,-5.0402,0,-4.9769,-4.9943,-4.9879,-5.0057,-5.0129,-5.0014,-5.0104,-5.0116,-5.0092,-5.015,-5.0124,-5.0191,-5.0081,-5.0094,-5.0169,-5.0144,-5.0279,-5.0125,-5.0207,-5.021,-5.0203,-5.0552,-5.0619,-5.0862,-5.0434,-5.044,-5.0444,0,-5.0099,-5.0135,-5.0321,-5.0309,-5.0337,-5.0418,-5.0457,-5.0514,-5.0525,-5.0501,-5.0528,-5.0457,-5.0557,-5.0423,-5.0559,-5.0455,-5.0485,-5.0478,-5.0486,-5.0488,-5.0338,-5.056,-5.0939,-5.0974,-5.0495,-5.0491,-5.0487,0,-5.0363,-5.0459,-5.0581,-5.0594,-5.0584,-5.0644,-5.0643,-5.0645,-5.0678,-5.0713,-5.0733,-5.078,-5.0805,-5.0842,-5.0785,-5.0694,-5.0928,-5.079,-5.091,-5.0911,-5.0961,-5.0958,-5.1347,-5.0988,-5.0988,-5.0987,-5.0986,0,-5.0661,-5.0779,-5.0698,-5.0774,-5.0901,-5.0826,-5.0955,-5.0941,-5.0944,-5.1014,-5.0919,-5.0987,-5.0909,-5.097,-5.0927,-5.1043,-5.1057,-5.104,-5.1026,-5.1046,-5.1048,-5.1062,-5.1042,-5.0996,-5.0994,-5.0992,-5.0991,0,-5.0976,-5.0928,-5.1053,-5.1033,-5.1031,-5.1126,-5.1108,-5.1176,-5.1146,-5.1236,-5.1253,-5.1206,-5.1272,-5.1219,-5.1285,-5.1255,-5.1409,-5.1374,-5.1405,-5.1394,-5.1515,-5.1503,-5.1923,-5.1973,-5.1586,-5.159,-5.1593,0,-5.1168,-5.1255,-5.1244,-5.1283,-5.1288,-5.1353,-5.1386,-5.1316,-5.1354,-5.1371,-5.1438,-5.1495,-5.1537,-5.1648,-5.162,-5.1669,-5.1631,-5.1775,-5.1638,-5.1654,-5.1629,-5.1622,-5.1629,-5.1802,-5.1806,-5.181,-5.1813,0,-5.1512,-5.1483,-5.1533,-5.1576,-5.1617,-5.1647,-5.167,-5.1708,-5.1636,-5.1684,-5.1749,-5.1782,-5.1848,-5.1905,-5.1945,-5.1943,-5.1866,-5.1857,-5.1887,-5.1906,-5.1919,-5.1909,-5.1477,-5.1847,-5.1844,-5.1841,-5.1839,-5.1838,-5.1767,-5.1838,-5.1841,-5.19,-5.1909,-5.1932,-5.1994,-5.1972,-5.2025,-5.2072,-5.2028,-5.2107,-5.2114,-5.2158,-5.2166,-5.2226,-5.2167,-5.2211,-5.2221,-5.2232,-5.2247,-5.1913,-5.2234,-5.2233,-5.2232,-5.2231,-5.223,0,-5.2103,-5.2099,-5.2154,-5.2187,-5.2234,-5.2158,-5.2179,-5.2222,-5.2292,-5.2305,-5.2348,-5.2423,-5.2478,-5.2455,-5.2503,-5.2556,-5.2521,-5.257,-5.2564,-5.2564,-5.23,-5.2267,-5.2597,-5.2597,-5.2597,-5.2597,-5.2597,-5.2597,-5.2282,-5.2397,-5.2369,-5.2487,-5.2482,-5.2557,-5.2575,-5.2596,-5.2605,-5.2692,-5.2738,-5.2722,-5.2719,-5.2767,-5.2814,-5.2806,-5.2826,-5.2888,-5.2866,-5.2619,-5.2583,-5.2548,-5.2517,-5.2894,-5.2894,-5.3124,-5.3127,-5.3128]},{"header":{"parameterUnit":"m.s-1","parameterCategory":1,"la1":30.2991,"la2":30.254,"lo1":-89.0895,"lo2":-89.0444,"dy":0.0017,"dx":0.0017,"nx":28,"ny":28,"refTime":"2024-10-17T03:00:00:Z","depth":0,"parameterNumber":3,"parameterNumberName":"V-component_of_WINDS"},"data":[0,0,0,0,0,0,0,0,0,0,0,0,0,0,0,0,0,0,0,0,0,0,0,0,0,0,0,0,0,0,0,0,0,0,0,0,0,0,0,0,0,0,0,0,0,0,0,0,0,0,0,0,0,0,0,0,0,0,-2.2247,-2.2247,0,-2.2286,-2.2286,-2.2287,-2.2289,-2.2289,-2.2288,-2.2288,-2.2325,-2.2327,-2.2328,0,0,0,0,0,0,0,0,0,0,0,0,0,-2.217,-2.2172,-2.2247,-2.2247,-2.2248,-2.2286,-2.2286,-2.2287,-2.2289,-2.2289,-2.2288,-2.2288,-2.2325,-2.2327,-2.2328,0,0,0,0,0,0,0,0,0,0,0,0,0,-2.2206,-2.2172,-2.2247,-2.2254,-2.2255,-2.2286,-2.2286,-2.2287,-2.2289,-2.2289,-2.2288,-2.2287,-2.2324,-2.2326,-2.2328,-2.2355,0,0,-2.2335,-2.2336,0,0,0,0,0,0,0,0,-2.2204,-2.2209,-2.2252,-2.2253,-2.2254,-2.2282,-2.2273,-2.231,-2.2289,-2.2276,-2.2288,-2.2287,-2.2311,-2.2314,-2.2323,-2.2357,-2.2358,-2.2335,-2.2336,-2.2337,-2.2338,0,0,0,0,0,0,0,-2.2201,-2.2207,-2.2262,-2.2253,-2.2254,-2.2253,-2.2258,-2.228,-2.2297,-2.2277,-2.2277,-2.2282,-2.2312,-2.2321,-2.2324,-2.2359,-2.2335,-2.2337,-2.2338,-2.2339,-2.2413,-2.2413,0,0,0,0,0,0,-2.2198,-2.2205,-2.2261,-2.2263,-2.2227,-2.2255,-2.226,-2.2274,-2.2297,-2.2299,-2.2283,-2.2282,-2.2318,-2.2322,-2.2325,-2.2356,-2.2337,-2.2339,-2.2341,-2.2412,-2.2413,-2.2414,0,0,0,0,0,0,-2.2196,-2.2203,-2.2259,-2.2234,-2.2241,-2.2257,-2.2273,-2.2275,-2.2284,-2.2301,-2.2303,-2.2289,-2.2317,-2.2322,-2.2347,-2.2357,-2.234,-2.2342,-2.2411,-2.2412,-2.2413,-2.2418,0,0,0,0,0,0,-2.2194,-2.2202,-2.2214,-2.2235,-2.2243,-2.2282,-2.2273,-2.2276,-2.2288,-2.2288,-2.2308,-2.231,-2.2317,-2.2344,-2.2349,-2.236,-2.2344,-2.241,-2.2412,-2.2413,-2.2417,-2.2419,-2.2421,0,0,0,0,0,-2.2191,-2.2214,-2.2214,-2.2221,-2.2257,-2.2282,-2.2287,-2.2295,-2.2289,-2.23,-2.231,-2.231,-2.2355,-2.2346,-2.2352,-2.2364,-2.241,-2.2411,-2.2413,-2.2416,-2.2419,-2.2421,0,0,0,0,0,0,-2.2194,-2.2217,-2.2218,-2.2248,-2.2263,-2.2283,-2.2297,-2.2298,-2.2315,-2.2314,-2.2322,-2.2327,-2.2351,-2.236,-2.2349,-2.2389,-2.2382,-2.2384,-2.2382,-2.2385,-2.2387,-2.2384,-2.2346,0,0,0,0,0,-2.2198,-2.2217,-2.2236,-2.226,-2.2268,-2.2281,-2.2292,-2.2297,-2.2313,-2.2319,-2.2331,-2.2346,-2.2363,-2.2375,-2.2392,-2.2419,-2.2422,-2.2429,-2.2431,-2.2433,-2.2435,-2.2447,-2.245,-2.2419,-2.2419,-2.2419,0,0,-2.2206,-2.2221,-2.2233,-2.2261,-2.2273,-2.2292,-2.2286,-2.2307,-2.232,-2.2322,-2.2346,-2.2355,-2.2372,-2.2397,-2.2409,-2.2405,-2.2444,-2.2435,-2.2436,-2.2437,-2.2449,-2.2452,-2.2455,-2.242,-2.2419,-2.2419,0,0,-2.223,-2.2245,-2.2265,-2.2278,-2.2297,-2.2305,-2.231,-2.2329,-2.2335,-2.2359,-2.236,-2.2375,-2.2406,-2.2417,-2.2427,-2.2453,-2.2453,-2.2458,-2.2468,-2.248,-2.2483,-2.2485,-2.2493,-2.2495,-2.246,-2.246,-2.246,0,-2.2238,-2.2267,-2.2276,-2.2296,-2.2307,-2.231,-2.233,-2.2341,-2.2364,-2.2371,-2.2367,-2.2404,-2.2416,-2.2443,-2.2449,-2.2457,-2.2461,-2.2456,-2.2482,-2.2484,-2.2486,-2.2494,-2.2497,-2.2461,-2.2461,-2.2461,-2.2461,0,-2.2275,-2.2294,-2.2309,-2.2331,-2.2344,-2.2364,-2.2374,-2.2386,-2.2389,-2.2397,-2.242,-2.2433,-2.2452,-2.2459,-2.2463,-2.2486,-2.2483,-2.248,-2.2473,-2.249,-2.2497,-2.25,-2.2461,-2.2461,-2.2461,-2.2461,0,0,-2.2303,-2.2328,-2.2333,-2.2342,-2.2362,-2.2377,-2.2396,-2.2415,-2.2424,-2.2439,-2.2454,-2.2478,-2.2476,-2.2487,-2.2491,-2.2502,-2.2519,-2.2498,-2.2498,-2.25,-2.2543,-2.2544,-2.2548,-2.2519,-2.252,-2.252,-2.2541,0,-2.2328,-2.2363,-2.237,-2.2399,-2.2416,-2.2418,-2.2434,-2.2447,-2.2454,-2.2469,-2.2477,-2.2493,-2.2489,-2.2495,-2.2506,-2.2515,-2.2528,-2.2513,-2.2531,-2.2532,-2.2527,-2.2551,-2.2553,-2.2572,-2.2544,-2.2545,-2.2545,0,-2.2363,-2.2379,-2.241,-2.2425,-2.2433,-2.2447,-2.2464,-2.2478,-2.2492,-2.2496,-2.2508,-2.251,-2.2528,-2.252,-2.2543,-2.2533,-2.2541,-2.2546,-2.2547,-2.2548,-2.2539,-2.2552,-2.2579,-2.2581,-2.255,-2.2549,-2.2549,0,-2.2378,-2.2407,-2.2429,-2.2437,-2.2456,-2.2466,-2.2474,-2.2488,-2.2498,-2.2512,-2.2518,-2.2534,-2.2542,-2.2554,-2.256,-2.2554,-2.2582,-2.2575,-2.2585,-2.2585,-2.2591,-2.259,-2.2618,-2.2597,-2.2597,-2.2597,-2.2597,0,-2.2406,-2.2424,-2.2436,-2.2449,-2.2469,-2.2476,-2.2495,-2.2503,-2.2515,-2.2528,-2.2531,-2.2543,-2.2551,-2.2564,-2.2569,-2.2586,-2.2591,-2.2593,-2.2594,-2.2593,-2.2592,-2.2598,-2.2596,-2.2598,-2.2598,-2.2598,-2.2597,0,-2.2426,-2.2435,-2.2458,-2.2474,-2.2478,-2.2492,-2.2505,-2.2517,-2.2524,-2.2541,-2.2545,-2.2555,-2.2571,-2.2578,-2.2597,-2.26,-2.262,-2.262,-2.2615,-2.2615,-2.2624,-2.2623,-2.2656,-2.266,-2.2637,-2.2638,-2.2638,0,-2.2443,-2.2457,-2.2473,-2.2483,-2.2491,-2.2507,-2.2517,-2.2523,-2.2533,-2.2549,-2.2559,-2.2574,-2.2587,-2.2611,-2.262,-2.2634,-2.2634,-2.2644,-2.2636,-2.2633,-2.2632,-2.2631,-2.2632,-2.2646,-2.2646,-2.2646,-2.2646,0,-2.247,-2.2473,-2.2488,-2.2504,-2.2515,-2.2528,-2.254,-2.2547,-2.2556,-2.2567,-2.2582,-2.2592,-2.2611,-2.2626,-2.264,-2.2647,-2.2647,-2.2649,-2.2651,-2.265,-2.2646,-2.2646,-2.2618,-2.2648,-2.2648,-2.2648,-2.2647,-2.2647,-2.2488,-2.25,-2.2513,-2.2528,-2.2538,-2.2549,-2.2561,-2.2568,-2.2582,-2.2598,-2.2601,-2.2617,-2.2628,-2.2648,-2.2655,-2.2667,-2.2665,-2.2669,-2.267,-2.2671,-2.267,-2.2644,-2.267,-2.267,-2.267,-2.267,-2.267,0,-2.2514,-2.2523,-2.2537,-2.2554,-2.2565,-2.2565,-2.2578,-2.2587,-2.2602,-2.2613,-2.2625,-2.2642,-2.2655,-2.2664,-2.2678,-2.2686,-2.2686,-2.2689,-2.2688,-2.2689,-2.2673,-2.2668,-2.2688,-2.2688,-2.2688,-2.2688,-2.2688,-2.2688,-2.253,-2.2549,-2.2553,-2.2576,-2.2584,-2.26,-2.2607,-2.2617,-2.2625,-2.2644,-2.2656,-2.2661,-2.2671,-2.2685,-2.2697,-2.2699,-2.2703,-2.2706,-2.2708,-2.2693,-2.2691,-2.2689,-2.2685,-2.2707,-2.2708,-2.2723,-2.2724,-2.2724]}]]